Weather in Tamala

Russia / Penza Oblast     52°32′38″N   43°14′54″E
temp.,
°C
wind,
m/s
gust,
m/s
humid.,
%
clouds,
%
prec.,
mm/h
press.,
hPa
HPBL,
m
22 may, sun
sun2200:00+6sse1268100 0.0 100610
03:00+6se2365100 0.0 100461
06:00+7se4885100 0.1 1001269
09:00+7se4987100 0.6 1000380
12:00+9ese4775100 0.0 999684
15:00+11se5668100 0.1 9981026
18:00+12e1366100 1.1 99749
21:00+8ene3687100 2.2 999245
23 may, mon
mon2300:00+6nne4884100 0.4 999303
03:00+3n599025 0.4 1001214
06:00+3n69835 0.0 1002327
09:00+6nnw67595 0.0 10031052
12:00+9nnw565199 0.0 10031686
15:00+8nw6755100 0.0 10051383
18:00+7nw5762100 0.0 10061338
21:00+3w33784 0.0 100635
24 may, tue
tue2400:00+2sw46825 0.0 1007105
03:00+3sw513845 0.0 1006254
06:00+5wsw511825 0.0 1006292
09:00+11w6858100 0.0 1006991
12:00+13w71052100 0.1 10062375
15:00+13wnw81047100 0.3 10052338
18:00+8nw4674100 0.1 1008914
21:00+6wnw3684100 0.1 1010131
25 may, wed
wed2500:00+3nw35935 0.1 101189
03:00+2nnw35945 0.1 101291
06:00+3nnw46845 0.0 1014275
09:00+7nnw465812 0.0 10141290
12:00+9nw4553100 0.1 10151710
15:00+9wnw4557100 0.1 10151355
18:00+8nw456431 0.1 10161137
21:00+6nw247392 0.1 1017112
26 may, thu
thu2600:00+4wnw238129 0.0 101735
03:00+4w237718 0.0 101740
06:00+5wsw24785 0.0 1016174
09:00+10sw456253 0.0 1015738
12:00+15sw6867100 0.0 10121281
15:00+17wsw8106395 0.8 10101453
18:00+15wsw81475100 1.6 1008669
21:00+13sw71482100 2.4 1006482